| time (UTC) | temp F | wind direction | speed knots | gust knots | rain 1hr in | rain 24hr in | rain mn in | humidity % | barometer mb |
| 20260507155623 | 57 | 95 | 2.6 | 4.3 | 0.00 | 0.00 | 0.00 | 25 | 1015.6 |
| 20260507154623 | 58 | 106 | 1.7 | 3.5 | 0.00 | 0.00 | 0.00 | 25 | 1015.6 |
| 20260507153623 | 58 | 116 | 3.5 | 5.2 | 0.00 | 0.00 | 0.00 | 25 | 1015.7 |
| 20260507152622 | 60 | 185 | 1.7 | 4.3 | 0.00 | 0.00 | 0.00 | 25 | 1015.9 |
| 20260507151622 | 63 | 247 | 2.6 | 5.2 | 0.00 | 0.00 | 0.00 | 24 | 1015.9 |
| 20260507150622 | 64 | 204 | 2.6 | 3.5 | 0.00 | 0.00 | 0.00 | 24 | 1015.9 |
| 20260507145621 | 66 | 242 | 0.9 | 2.6 | 0.00 | 0.00 | 0.00 | 23 | 1016.1 |
| 20260507144621 | 66 | 261 | 4.3 | 7.0 | 0.00 | 0.00 | 0.00 | 23 | 1016.0 |
| 20260507143621 | 65 | 222 | 2.6 | 4.3 | 0.00 | 0.00 | 0.00 | 23 | 1016.0 |
| 20260507142621 | 65 | 238 | 2.6 | 4.3 | 0.00 | 0.00 | 0.00 | 23 | 1015.9 |
| 20260507141620 | 64 | 250 | 3.5 | 6.1 | 0.00 | 0.00 | 0.00 | 24 | 1015.9 |
| 20260507140620 | 64 | 237 | 3.5 | 7.0 | 0.00 | 0.00 | 0.00 | 24 | 1015.9 |
| 20260507135620 | 65 | 252 | 3.5 | 5.2 | 0.00 | 0.00 | 0.00 | 23 | 1016.1 |
| 20260507134619 | 65 | 225 | 2.6 | 4.3 | 0.00 | 0.00 | 0.00 | 23 | 1016.1 |
| 20260507133619 | 66 | 253 | 1.7 | 3.5 | 0.00 | 0.00 | 0.00 | 23 | 1016.1 |
| 20260507132619 | 66 | 244 | 2.6 | 4.3 | 0.00 | 0.00 | 0.00 | 23 | 1016.2 |
| 20260507131619 | 66 | 215 | 3.5 | 5.2 | 0.00 | 0.00 | 0.00 | 23 | 1016.2 |
| 20260507130618 | 65 | 246 | 2.6 | 3.5 | 0.00 | 0.00 | 0.00 | 23 | 1016.2 |
| 20260507125618 | 66 | 238 | 2.6 | 3.5 | 0.00 | 0.00 | 0.00 | 23 | 1016.3 |
| 20260507124618 | 66 | 194 | 2.6 | 3.5 | 0.00 | 0.00 | 0.00 | 23 | 1016.5 |
| 20260507123617 | 65 | 228 | 2.6 | 3.5 | 0.00 | 0.00 | 0.00 | 23 | 1016.3 |
| 20260507122617 | 63 | 230 | 1.7 | 3.5 | 0.00 | 0.00 | 0.00 | 24 | 1016.1 |
| 20260507121617 | 60 | 243 | 3.5 | 5.2 | 0.00 | 0.00 | 0.00 | 25 | 1016.0 |
| 20260507120616 | 61 | 262 | 3.5 | 5.2 | 0.00 | 0.00 | 0.00 | 24 | 1016.0 |
| 20260507115616 | 61 | 214 | 3.5 | 4.3 | 0.00 | 0.00 | 0.00 | 24 | 1016.0 |
| 20260507114616 | 63 | 239 | 4.3 | 5.2 | 0.00 | 0.00 | 0.00 | 24 | 1015.9 |
| 20260507113616 | 67 | 238 | 2.6 | 8.7 | 0.00 | 0.00 | 0.00 | 23 | 1016.2 |
| 20260507112615 | 67 | 296 | 0.9 | 3.5 | 0.00 | 0.00 | 0.00 | 23 | 1016.2 |
| 20260507111615 | 66 | 286 | 2.6 | 3.5 | 0.00 | 0.00 | 0.00 | 23 | 1016.1 |
| 20260507110615 | 67 | 228 | 1.7 | 6.1 | 0.00 | 0.00 | 0.00 | 23 | 1016.1 |
| 20260507105614 | 67 | 243 | 2.6 | 4.3 | 0.00 | 0.00 | 0.00 | 23 | 1015.9 |
| 20260507104614 | 68 | 247 | 2.6 | 5.2 | 0.00 | 0.00 | 0.00 | 23 | 1016.1 |
| 20260507103614 | 67 | 247 | 2.6 | 6.1 | 0.00 | 0.00 | 0.00 | 23 | 1016.0 |
| 20260507102614 | 69 | 252 | 3.5 | 7.0 | 0.00 | 0.00 | 0.00 | 22 | 1016.1 |
| 20260507101613 | 70 | 263 | 3.5 | 6.1 | 0.00 | 0.00 | 0.00 | 22 | 1016.3 |
| 20260507100613 | 70 | 267 | 1.7 | 4.3 | 0.00 | 0.00 | 0.00 | 22 | 1016.2 |
| 20260507095613 | 70 | 259 | 2.6 | 3.5 | 0.00 | 0.00 | 0.00 | 22 | 1016.2 |
| 20260507094612 | 67 | 247 | 5.2 | 7.8 | 0.00 | 0.00 | 0.00 | 23 | 1015.9 |
| 20260507093612 | 65 | 240 | 2.6 | 7.8 | 0.00 | 0.00 | 0.00 | 23 | 1015.9 |
| 20260507092612 | 69 | 268 | 3.5 | 4.3 | 0.00 | 0.00 | 0.00 | 22 | 1015.9 |
| 20260507091612 | 66 | 216 | 3.5 | 6.1 | 0.00 | 0.00 | 0.00 | 23 | 1015.7 |
| 20260507090611 | 67 | 243 | 3.5 | 6.1 | 0.00 | 0.00 | 0.00 | 23 | 1015.7 |
| 20260507085611 | 67 | 246 | 2.6 | 3.5 | 0.00 | 0.00 | 0.00 | 23 | 1015.7 |
| 20260507084611 | 67 | 108 | 1.7 | 3.5 | 0.00 | 0.00 | 0.00 | 23 | 1015.7 |
| 20260507083610 | 66 | 244 | 1.7 | 3.5 | 0.00 | 0.00 | 0.00 | 23 | 1015.5 |
| 20260507082610 | 66 | 232 | 4.3 | 7.0 | 0.00 | 0.00 | 0.00 | 23 | 1015.5 |
| 20260507081610 | 68 | 240 | 3.5 | 5.2 | 0.00 | 0.00 | 0.00 | 23 | 1015.5 |
| 20260507080609 | 66 | 222 | 2.6 | 5.2 | 0.00 | 0.00 | 0.00 | 23 | 1015.3 |
| 20260507075609 | 65 | 288 | 0.9 | 3.5 | 0.00 | 0.00 | 0.00 | 23 | 1015.2 |
| 20260507074609 | 64 | 246 | 2.6 | 7.0 | 0.00 | 0.00 | 0.00 | 24 | 1015.1 |
| 20260507073609 | 64 | 234 | 1.7 | 7.0 | 0.00 | 0.00 | 0.00 | 24 | 1015.0 |
| 20260507072608 | 67 | 253 | 1.7 | 3.5 | 0.00 | 0.00 | 0.00 | 23 | 1014.9 |
| 20260507071608 | 65 | 211 | 0.9 | 1.7 | 0.00 | 0.00 | 0.00 | 23 | 1014.8 |
| 20260507070608 | 65 | 252 | 1.7 | 4.3 | 0.00 | 0.00 | 0.00 | 23 | 1014.7 |
| 20260507065607 | 64 | 280 | 1.7 | 3.5 | 0.00 | 0.00 | 0.00 | 24 | 1014.6 |
| 20260507064607 | 63 | 259 | 1.7 | 2.6 | 0.00 | 0.00 | 0.00 | 24 | 1014.5 |
| 20260507063607 | 64 | 262 | 3.5 | 4.3 | 0.00 | 0.00 | 0.00 | 24 | 1014.6 |
| 20260507062607 | 63 | 270 | 1.7 | 4.3 | 0.00 | 0.00 | 0.00 | 24 | 1014.4 |
| 20260507061606 | 63 | 258 | 1.7 | 4.3 | 0.00 | 0.00 | 0.00 | 24 | 1014.4 |
| 20260507060606 | 62 | 270 | 1.7 | 4.3 | 0.00 | 0.00 | 0.00 | 24 | 1014.3 |
| 20260507055606 | 63 | 298 | 3.5 | 4.3 | 0.00 | 0.00 | 0.00 | 24 | 1014.2 |
| 20260507054605 | 64 | 246 | 1.7 | 4.3 | 0.00 | 0.00 | 0.00 | 24 | 1014.3 |
| 20260507053605 | 62 | 265 | 1.7 | 3.5 | 0.00 | 0.00 | 0.00 | 24 | 1014.0 |
| 20260507052605 | 63 | 0 | 0.0 | 0.0 | 0.00 | 0.00 | 0.00 | 24 | 1013.9 |
| 20260507051605 | 60 | 0 | 0.0 | 0.0 | 0.00 | 0.00 | 0.00 | 25 | 1013.6 |
| 20260507050604 | 60 | 0 | 0.0 | 0.0 | 0.00 | 0.00 | 0.00 | 25 | 1013.5 |
| 20260507045604 | 60 | 314 | 0.0 | 0.9 | 0.00 | 0.00 | 0.00 | 25 | 1013.5 |
| 20260507044608 | 60 | 281 | 0.9 | 3.5 | 0.00 | 0.00 | 0.00 | 25 | 1013.4 |
| 20260507043603 | 60 | 313 | 1.7 | 2.6 | 0.00 | 0.00 | 0.00 | 25 | 1013.4 |
| 20260507042603 | 59 | 327 | 2.6 | 4.3 | 0.00 | 0.00 | 0.00 | 25 | 1013.3 |
| 20260507041603 | -25 | 1 | 2.6 | 2.6 | 0.00 | 0.00 | 0.00 | 13 | 946.3 |
| 20260507040603 | -25 | 1 | 2.6 | 2.6 | 0.00 | 0.00 | 0.00 | 13 | 946.3 |
| 20260507035602 | -25 | 1 | 2.6 | 2.6 | 0.00 | 0.00 | 0.00 | 13 | 946.2 |
| 20260507034602 | -25 | 1 | 2.6 | 2.6 | 0.00 | 0.00 | 0.00 | 13 | 946.1 |
| 20260507033602 | -25 | 1 | 2.6 | 2.6 | 0.00 | 0.00 | 0.00 | 13 | 946.0 |
| 20260507032601 | 59 | 1 | 2.6 | 2.6 | 0.00 | 0.00 | 0.00 | 25 | 1012.9 |
| 20260507031601 | 59 | 1 | 2.6 | 2.6 | 0.00 | 0.00 | 0.00 | 25 | 1012.9 |
| 20260507030601 | 59 | 1 | 2.6 | 2.6 | 0.00 | 0.00 | 0.00 | 25 | 1012.8 |
| 20260507025600 | 59 | 1 | 2.6 | 2.6 | 0.00 | 0.00 | 0.00 | 25 | 1012.8 |
| 20260507024600 | 59 | 1 | 2.6 | 2.6 | 0.00 | 0.00 | 0.00 | 25 | 1012.9 |
| 20260507023600 | 59 | 1 | 2.6 | 2.6 | 0.00 | 0.00 | 0.00 | 25 | 1012.9 |
| 20260507022600 | 59 | 1 | 2.6 | 2.6 | 0.00 | 0.00 | 0.00 | 25 | 1013.0 |
| 20260507021559 | 59 | 1 | 2.6 | 2.6 | 0.00 | 0.00 | 0.00 | 25 | 1013.0 |
| 20260507020559 | 59 | 1 | 2.6 | 2.6 | 0.00 | 0.00 | 0.00 | 25 | 1012.9 |
| 20260507015559 | 59 | 351 | 2.6 | 3.5 | 0.00 | 0.00 | 0.00 | 25 | 1012.8 |
| 20260507014558 | 59 | 315 | 1.7 | 1.7 | 0.00 | 0.00 | 0.00 | 25 | 1012.5 |
| 20260507013558 | 58 | 315 | 1.7 | 1.7 | 0.00 | 0.00 | 0.00 | 25 | 1012.4 |
| 20260507012558 | 58 | 272 | 2.6 | 2.6 | 0.00 | 0.00 | 0.00 | 25 | 1012.4 |
| 20260507011558 | 58 | 270 | 2.6 | 2.6 | 0.00 | 0.00 | 0.00 | 25 | 1012.4 |
| 20260507010557 | 58 | 270 | 2.6 | 3.5 | 0.00 | 0.00 | 0.00 | 25 | 1012.3 |
| 20260507005557 | 58 | 270 | 3.5 | 3.5 | 0.00 | 0.00 | 0.00 | 25 | 1012.2 |
| 20260507004557 | 58 | 270 | 3.5 | 3.5 | 0.00 | 0.00 | 0.00 | 25 | 1012.2 |
| 20260507003556 | 58 | 270 | 3.5 | 3.5 | 0.00 | 0.00 | 0.00 | 25 | 1012.1 |
| 20260507002556 | 58 | 270 | 3.5 | 3.5 | 0.00 | 0.00 | 0.00 | 25 | 1012.2 |
| 20260507001556 | 58 | 270 | 3.5 | 3.5 | 0.00 | 0.00 | 0.00 | 25 | 1012.2 |
| 20260507000555 | 58 | 90 | 0.9 | 3.5 | 0.00 | 0.00 | 0.00 | 25 | 1012.2 |
| 20260506235555 | 58 | 254 | 0.9 | 1.7 | 0.00 | 0.00 | 0.00 | 25 | 1012.2 |
| 20260506234555 | 59 | 246 | 2.6 | 3.5 | 0.00 | 0.00 | 0.00 | 25 | 1012.3 |
| 20260506233555 | 59 | 181 | 2.6 | 2.6 | 0.00 | 0.00 | 0.00 | 25 | 1012.4 |
| 20260506232554 | 59 | 174 | 2.6 | 2.6 | 0.00 | 0.00 | 0.00 | 25 | 1012.4 |
| 20260506231554 | 59 | 45 | 1.7 | 1.7 | 0.00 | 0.00 | 0.00 | 25 | 1012.4 |
| 20260506230554 | 61 | 45 | 1.7 | 1.7 | 0.00 | 0.00 | 0.00 | 24 | 1012.5 |
| 20260506225553 | 61 | 45 | 1.7 | 1.7 | 0.00 | 0.00 | 0.00 | 24 | 1012.5 |
| 20260506224553 | 61 | 45 | 1.7 | 3.5 | 0.00 | 0.00 | 0.00 | 24 | 1012.5 |
| 20260506223553 | 63 | 225 | 3.5 | 3.5 | 0.00 | 0.00 | 0.00 | 24 | 1012.6 |
| 20260506222553 | 63 | 224 | 2.6 | 3.5 | 0.00 | 0.00 | 0.00 | 24 | 1012.7 |
| 20260506221552 | 63 | 181 | 0.9 | 0.9 | 0.00 | 0.00 | 0.00 | 24 | 1012.7 |
| 20260506220552 | 63 | 181 | 0.9 | 0.9 | 0.00 | 0.00 | 0.00 | 24 | 1012.7 |
| 20260506215552 | 63 | 262 | 4.3 | 7.0 | 0.00 | 0.00 | 0.00 | 24 | 1012.7 |
| 20260506214551 | 63 | 270 | 6.1 | 7.0 | 0.00 | 0.00 | 0.00 | 24 | 1012.7 |
| 20260506213551 | 63 | 270 | 4.3 | 4.3 | 0.00 | 0.00 | 0.00 | 24 | 1012.6 |
| 20260506212551 | 63 | 270 | 4.3 | 4.3 | 0.00 | 0.00 | 0.00 | 24 | 1012.5 |
| 20260506211551 | 63 | 270 | 4.3 | 4.3 | 0.00 | 0.00 | 0.00 | 24 | 1012.4 |
| 20260506210550 | 63 | 203 | 4.3 | 7.0 | 0.00 | 0.00 | 0.00 | 24 | 1012.3 |
| 20260506205550 | 61 | 270 | 0.9 | 3.5 | 0.00 | 0.00 | 0.00 | 24 | 1012.0 |
| 20260506204550 | 61 | 234 | 0.9 | 3.5 | 0.00 | 0.00 | 0.00 | 24 | 1011.9 |
| 20260506203549 | 62 | 342 | 0.9 | 1.7 | 0.00 | 0.00 | 0.00 | 24 | 1012.0 |
| 20260506202549 | 63 | 257 | 1.7 | 3.5 | 0.00 | 0.00 | 0.00 | 24 | 1012.2 |
| 20260506201549 | 64 | 304 | 1.7 | 3.5 | 0.00 | 0.00 | 0.00 | 24 | 1012.4 |
| 20260506200549 | 64 | 259 | 2.6 | 3.5 | 0.00 | 0.00 | 0.00 | 24 | 1012.4 |
| 20260506195548 | 63 | 253 | 1.7 | 4.3 | 0.00 | 0.00 | 0.00 | 24 | 1012.4 |
| 20260506194548 | 63 | 276 | 1.7 | 3.5 | 0.00 | 0.00 | 0.00 | 24 | 1012.3 |
| 20260506193548 | 63 | 265 | 1.7 | 2.6 | 0.00 | 0.00 | 0.00 | 24 | 1012.2 |
| 20260506192547 | 63 | 278 | 1.7 | 3.5 | 0.00 | 0.00 | 0.00 | 24 | 1011.9 |
| 20260506191547 | 62 | 266 | 0.9 | 2.6 | 0.00 | 0.00 | 0.00 | 24 | 1011.8 |
| 20260506190547 | 63 | 266 | 0.0 | 2.6 | 0.00 | 0.00 | 0.00 | 24 | 1011.7 |
| 20260506185546 | 63 | 275 | 0.9 | 3.5 | 0.00 | 0.00 | 0.00 | 24 | 1011.7 |
| 20260506184546 | 65 | 203 | 0.9 | 2.6 | 0.00 | 0.00 | 0.00 | 23 | 1011.8 |
| 20260506183546 | 66 | 253 | 1.7 | 4.3 | 0.00 | 0.00 | 0.00 | 23 | 1011.9 |
| 20260506182546 | 67 | 225 | 3.5 | 5.2 | 0.00 | 0.00 | 0.00 | 23 | 1011.9 |
| 20260506181545 | 67 | 248 | 5.2 | 8.7 | 0.00 | 0.00 | 0.00 | 23 | 1011.9 |
| 20260506180545 | 68 | 256 | 3.5 | 8.7 | 0.00 | 0.00 | 0.00 | 23 | 1011.9 |
| 20260506175545 | 67 | 0 | 0.0 | 0.0 | 0.00 | 0.00 | 0.00 | 23 | 1011.9 |
| 20260506174544 | 67 | 270 | 0.0 | 0.0 | 0.00 | 0.00 | 0.00 | 23 | 1011.9 |
| 20260506173544 | 67 | 257 | 0.0 | 0.0 | 0.00 | 0.00 | 0.00 | 23 | 1011.9 |
| 20260506172544 | 68 | 258 | 2.6 | 4.3 | 0.00 | 0.00 | 0.00 | 23 | 1012.1 |
| 20260506171543 | -25 | 270 | 4.3 | 4.3 | 0.00 | 0.00 | 0.00 | 13 | 944.5 |
| 20260506170543 | 68 | 265 | 2.6 | 4.3 | 0.00 | 0.00 | 0.00 | 23 | 1012.2 |
| 20260506165543 | 68 | 232 | 0.9 | 1.7 | 0.00 | 0.00 | 0.00 | 22 | 1012.2 |
| 20260506164543 | 68 | 223 | 1.7 | 3.5 | 0.00 | 0.00 | 0.00 | 23 | 1012.2 |
| 20260506163542 | 69 | 257 | 3.5 | 4.3 | 0.00 | 0.00 | 0.00 | 22 | 1012.2 |
| 20260506162542 | 69 | 244 | 2.6 | 6.1 | 0.00 | 0.00 | 0.00 | 22 | 1012.3 |
| 20260506161542 | 69 | 256 | 2.6 | 4.3 | 0.00 | 0.00 | 0.00 | 22 | 1012.5 |
| 20260506160542 | 69 | 252 | 3.5 | 6.1 | 0.00 | 0.00 | 0.00 | 22 | 1012.6 |